Weather History for KDMN - May, 2013

Change the Weather History Date:

Monday, May 13, 2013

  Actual Average Record
Temperature  
Mean Temperature 67 °F 68 °F  
Max Temperature 84 °F 86 °F 96 °F (1959)
Min Temperature 50 °F 51 °F 37 °F (1957)
Cooling Degree Days 2    
Growing Degree Days 16 (Base 50)    
Moisture  
Dew Point 22 °F    
Average Humidity 23    
Maximum Humidity 38    
Minimum Humidity 7    
Precipitation  
Precipitation 0.00 in 0.02 in 0.30 in (1992)
Month to date precipitation 0.03 0.30  
Year to date precipitation 0.51 2.28  
Sea Level Pressure  
Sea Level Pressure 30.04 in    
Wind  
Wind Speed 8 mph (East)    
Max Wind Speed 18 mph    
Max Gust Speed 28 mph    
Visibility 10 miles    
Events      
T = Trace of Precipitation, MM = Missing Value Source: NWS Daily Summary

Daily Weather History Graph

Daily Weather History Graph

Search for Another Location

Airport or City:

Trip Planner

Search our weather history database for the weather conditions in past years. The results will help you decide how hot, cold, wet, or windy it might be!

Date:

Astronomy

May. 13, 2013 Rise Set
Actual Time 6:14 AM MDT 8:00 PM MDT
Civil Twilight 5:47 AM MDT 8:27 PM MDT
Nautical Twilight 5:15 AM MDT 9:00 PM MDT
Astronomical Twilight 4:40 AM MDT 9:34 PM MDT
Moon 9:03 AM MDT (5/13) 11:11 PM MDT (5/13)
Length of Visible Light 14h 40m
Length of Day
13h 46m
Waxing Crescent, 12% of the Moon is Illuminated
May 13
Waxing Crescent
May 17
First Quarter
May 24
Full
May 31
Last Quarter
Jun 8
New

Hourly Weather History & Observations

Time (MDT) Temp. Dew Point Humidity Pressure Visibility Wind Dir Wind Speed Gust Speed Precip Events Conditions
12:53 AM 55.9 °F 24.1 °F 29% 30.06 in 10.0 mi North 4.6 mph - N/A   Clear
1:53 AM 57.0 °F 25.0 °F 29% 30.05 in 10.0 mi Calm Calm - N/A   Clear
2:53 AM 55.0 °F 25.0 °F 31% 30.06 in 10.0 mi NE 3.5 mph - N/A   Clear
3:53 AM 54.0 °F 26.1 °F 34% 30.07 in 10.0 mi ENE 5.8 mph - N/A   Clear
4:53 AM 52.0 °F 25.0 °F 35% 30.07 in 10.0 mi NE 6.9 mph - N/A   Clear
5:53 AM 51.1 °F 26.1 °F 38% 30.09 in 10.0 mi NE 8.1 mph - N/A   Clear
6:53 AM 53.1 °F 27.0 °F 37% 30.10 in 10.0 mi ENE 5.8 mph - N/A   Clear
7:53 AM 61.0 °F 30.0 °F 31% 30.10 in 10.0 mi ENE 10.4 mph - N/A   Clear
8:53 AM 66.0 °F 32.0 °F 28% 30.12 in 10.0 mi East 6.9 mph - N/A   Clear
9:53 AM 71.1 °F 33.1 °F 25% 30.10 in 10.0 mi ESE 10.4 mph - N/A   Clear
10:53 AM 73.0 °F 32.0 °F 22% 30.11 in 10.0 mi SE 8.1 mph - N/A   Clear
11:53 AM 73.9 °F 30.9 °F 21% 30.10 in 10.0 mi East 6.9 mph 17.3 mph N/A   Clear
2:53 PM 82.9 °F 17.1 °F 9% 30.01 in 10.0 mi ESE 18.4 mph 21.9 mph N/A   Clear
3:53 PM 82.0 °F 12.9 °F 7% 29.99 in 10.0 mi NE 15.0 mph 19.6 mph N/A   Clear
4:53 PM 82.0 °F 14.0 °F 8% 29.97 in 10.0 mi ESE 12.7 mph 18.4 mph N/A   Clear
6:53 PM 80.1 °F 10.0 °F 7% 29.96 in 10.0 mi East 10.4 mph 21.9 mph N/A   Clear
7:53 PM 75.9 °F 10.0 °F 8% 29.95 in 10.0 mi SE 6.9 mph - N/A   Clear
8:53 PM 70.0 °F 12.9 °F 11% 29.96 in 10.0 mi SE 4.6 mph - N/A   Clear
9:53 PM 64.9 °F 12.9 °F 13% 29.97 in 10.0 mi Calm Calm - N/A   Clear
10:53 PM 59.0 °F 15.1 °F 18% 29.98 in 10.0 mi SSE 4.6 mph - N/A   Clear
11:53 PM 61.0 °F 18.0 °F 19% 29.97 in 10.0 mi South 4.6 mph - N/A   Clear